Regional Weather Roundup
Issued by NWS

Home | Current Version | Previous Version | Graphics & Text | Print | Product List | Glossary On
Versions: 1 2 3 4 5 6 7 8 9 10 11 12 13 14 15 16 17 18 19 20 21 22 23 24 25 26 27 28 29 30 31 32 33 34 35 36 37 38 39 40 41 42 43 44 45 46 47 48 49 50
000
ASUS45 KBOU 282307
RWRCO

WEATHER ROUNDUP FOR COLORADO
NATIONAL WEATHER SERVICE DENVER/BOULDER CO
500 PM MDT THU AUG 28 2014

NOTE: "FAIR" INDICATES FEW OR NO CLOUDS BELOW 12000 FEET WITH NO
SIGNIFICANT WEATHER AND/OR OBSTRUCTIONS TO VISIBILITY.

COZ001>005-013-030-031-290000-
...NORTHWEST COLORADO...

CITY           SKY/WX    TMP DP  RH WIND       PRES   REMARKS
CRAIG          PTSUNNY   73  49  42 W12       30.22F
HAYDEN         MOSUNNY   68  45  42 W13       30.23F
MEEKER         MOSUNNY   68  49  50 SE5       30.24F
MOUNT WERNER   NOT AVBL
STEAMBOAT SPGS MOSUNNY   60  50  70 E9        30.26F
WALDEN         PTSUNNY   59  43  55 SW3       30.31F
$$

COZ006>008-011-290000-
...WEST CENTRAL VALLEYS...

CITY           SKY/WX    TMP DP  RH WIND       PRES   REMARKS
GRAND JUNCTION MOSUNNY   76  50  40 SE6       30.15F
MONTROSE       MOSUNNY   73  47  39 NW6       30.24F
EAGLE          PTSUNNY   70  43  37 W7        30.25F
RIFLE          SUNNY     72  50  45 VRB3      30.19F
DELTA          NOT AVBL
NUCLA          NOT AVBL
$$

COZ017>023-064>068-290000-
...SOUTHWEST COLORADO...

CITY           SKY/WX    TMP DP  RH WIND       PRES   REMARKS
DURANGO        SUNNY     77  38  24 NW15      30.18F
CORTEZ         SUNNY     77  43  29 N15G22    30.20F
PAGOSA SPRINGS CLOUDY    71  33  24 NE3       30.25F
TELLURIDE      MOSUNNY   61  37  41 CALM      30.40F
WOLF CREEK PAS MOSUNNY   50  34  53 NW7       30.52F
$$

COZ009-010-012-014-032>034-037-058>063-290000-
...CENTRAL COLORADO...

CITY           SKY/WX    TMP DP  RH WIND       PRES   REMARKS
ASPEN          PTSUNNY   62  44  51 VRB6      30.31F
BUENA VISTA    PTSUNNY   64  30  27 NW23G30   30.29F
COPPER MTN     CLOUDY    41  37  87 W21       30.54S FOG
BERTHOUD PASS  FOG       32  32 100 N18G31    30.54R VSB<1/4 WCI  20
COTTONWOOD PAS CLOUDY    59  28  31 NE3       30.40F
GUNNISON       MOSUNNY   66  37  34 NW9       30.31S
KREMMLING      PTSUNNY   59  43  55 CALM      30.32S
LEADVILLE      MOSUNNY   50  34  54 N14       30.42S
MONARCH PASS   CLOUDY    46  36  66 NW10G20   30.62R
SALIDA         CLOUDY    67  37  33 N15G24    30.32F
SUNLIGHT       MOSUNNY   50  46  87 CALM      30.52S
WILKERSON PASS NOT AVBL
$$

COZ069>075-290000-
...SAN LUIS VALLEY/SANGRE DE CRISTO MOUNTAINS...

CITY           SKY/WX    TMP DP  RH WIND       PRES   REMARKS
ALAMOSA        PTSUNNY   70  37  29 NW10      30.23S
LA VETA PASS   NOT AVBL
SAGUACHE       NOT AVBL
$$

COZ035-036-038>040-290000-
...NORTHERN COLORADO FRONT RANGE...

CITY           SKY/WX    TMP DP  RH WIND       PRES   REMARKS
DENVER INTL AP CLOUDY    61  50  67 W12       30.17S
DMNS CITY PARK   N/A     62  49  62 W5        30.18F
AURORA         PTSUNNY   60  52  75 NW10      30.20F
FRONT RANGE AP NOT AVBL
ERIE MUNI ARPT CLOUDY    62  51  66 NW3       30.17S
BOULDER MUN AP CLOUDY    63  50  63 CALM      30.18S
CENTENNIAL     LGT RAIN  58  50  75 NW6       30.21F
BROOMFIELD     PTSUNNY   63  50  63 N7        30.20S
FORT COLLINS   CLOUDY    63  50  63 CALM      30.14F
LONGMONT       CLOUDY    65  51  59 CALM      30.18R
$$

COZ041-046-047-076>085-087-088-290000-
...PIKES PEAK/PALMER DIVIDE AND SOUTHERN FOOTHILLS...

CITY           SKY/WX    TMP DP  RH WIND       PRES   REMARKS
COLO. SPRINGS  TSTM      58  50  75 NW20G28   30.22R
A. F. ACADEMY  LGT RAIN  55  50  82 N22       30.25R
ELLICOTT       CLOUDY    63  46  54 NW21G26   30.21R THUNDER
FALCON         TSTM      56  48  73 NW22G31   30.26R
FORT CARSON    PTSUNNY   57  54  88 NE13      30.20R THUNDER
LIMON          PTSUNNY   66  48  52 NW25G36   30.12S
MONUMENT HILL  TSTM      48  46  93 NW15G21   30.27R
TRINIDAD       PTSUNNY   69  50  50 NW12      30.14R
$$

COZ042>045-048>051-090-091-290000-
...NORTHEAST COLORADO...

CITY           SKY/WX    TMP DP  RH WIND       PRES   REMARKS
GREELEY ARPT   CLOUDY    64  48  55 W5        30.13F
AKRON          PTSUNNY   67  55  65 N16G25    30.08R
BURLINGTON     PTSUNNY   76  51  41 NW21G28   30.01S
WRAY             N/A     73  58  59 NW13      29.99S
STERLING       CLOUDY    72  59  64 NW15G21   30.05R
HOLYOKE        MOSUNNY   73  55  53 N20       30.00S
FORT MORGAN    PTSUNNY   68  51  54 N13G21    30.10S
$$

COZ086-089-092>099-290000-
...SOUTHEAST COLORADO...

CITY           SKY/WX    TMP DP  RH WIND       PRES   REMARKS
PUEBLO         CLOUDY    74  44  34 N5        30.10R
LA JUNTA       PTSUNNY   73  53  49 SE7       30.04S
LAMAR          PTSUNNY   80  48  32 VRB3      29.98S
SPRINGFIELD      N/A     78  45  30 NW8       30.02R
$$


USA.gov is the U.S. government's official web portal to all federal, state and local government web resources and services.